Home > Time Zones > World Clock > Weather > India > Patna > Past weeks

Flag for India Weather past 2 weeks in Patna, Bihar, India

Now
91 °F

Passing clouds.


Feels Like: 108 °F
Forecast: 82 / 97 °F
Wind: 6 mph from West

Location: Patna Airport

Current Time: Jul 28, 2015 at 7:49:22 PM

Latest Report: Jul 28, 2015 at 7:20 PM


Visibility: 2 mi

Pressure: 29.50 "Hg

Humidity: 67%

Dew point: 79 °F

Location of PatnaLocation

Historic Weather in Patna — Graph

°F

Patna temperature yesterday

Maximum temperature yesterday: 95 °F (at 2:20 PM)
Minimum temperature yesterday: 84 °F (at 7:20 AM)
Average temperature yesterday: 90 °F

Past Weeks' High & Low Weather Summary

 TemperatureHumidityPressure
High97 °F (Jul 26, 3:20 PM)100% (Jul 16, 5:20 AM)29.65 "Hg (Jul 16, 5:20 AM)
Low75 °F (Jul 16, 5:20 AM)56% (Jul 19, 4:20 PM)29.36 "Hg (Jul 14, 5:20 PM)
Average87 °F76%29.50 "Hg
* Reported Jul 13 6:20 PM — Jul 28 6:20 PM, Patna, Weather by CustomWeather, © 2015

Note: Actual official high and low records may vary slightly from our data, if they occured in-between our weather recording intervals... More about our weather records

Advertising

Patna weather history for previous 24 hours

 ConditionsComfort  
Time TempWeatherWind HumidityBarometerVisibility
6:20 PM
Tue, Jul 28
93 °FScattered clouds.7 mph63%29.50 "Hg4 mi
5:20 PM97 °FScattered clouds.7 mph60%29.50 "Hg4 mi
4:20 PM97 °FScattered clouds.9 mph60%29.50 "Hg4 mi
2:20 PM95 °FScattered clouds.9 mph63%29.53 "Hg4 mi
1:20 PM95 °FScattered clouds.12 mph63%29.56 "Hg4 mi
12:20 PM93 °FScattered clouds.9 mph67%29.56 "Hg4 mi
11:20 AM93 °FScattered clouds.12 mph63%29.56 "Hg4 mi
10:20 AM91 °FScattered clouds.9 mph67%29.59 "Hg3 mi
9:20 AM90 °FScattered clouds.12 mph67%29.59 "Hg3 mi
8:20 AM88 °FScattered clouds.12 mph75%29.59 "Hg2 mi
7:20 AM86 °FScattered clouds.7 mph79%29.59 "Hg2 mi
6:20 AM84 °FScattered clouds.5 mph84%29.56 "Hg2 mi
5:20 AM82 °FPartly cloudy.3 mph84%29.56 "Hg2 mi
10:20 PM
Mon, Jul 27
88 °FPartly cloudy.3 mph75%29.59 "Hg2 mi
9:20 PM88 °FPassing clouds.3 mph75%29.59 "Hg2 mi
8:20 PM90 °FPassing clouds.No wind71%29.56 "Hg2 mi
7:20 PM91 °FPassing clouds.5 mph71%29.53 "Hg2 mi
Weather by CustomWeather, © 2015

See weather overviewHow to use our weather pages